Home > Weather > Rendsburg > Past weeks

Flag for Germany Past Weather in Rendsburg, Schleswig-Holstein, Germany — Yesterday and Last 2 Weeks

Now
63 °F

Broken clouds.


Feels Like: 63 °F
Forecast: 57 / 68 °F
Wind: 17 mph from West

Location: Hohn

Current Time: Jun 30, 2016 at 4:17:45 PM

Latest Report: Jun 30, 2016 at 3:20 PM


Visibility: N/A

Pressure: 29.86 "Hg

Humidity: 88%

Dew Point: 59 °F

Location of RendsburgLocation

Past Weather in Rendsburg — Graph

°F

Rendsburg Temperature Yesterday

Maximum temperature yesterday: 66 °F (at 12:20 PM)
Minimum temperature yesterday: 55 °F (at 4:20 AM)
Average temperature yesterday: 60 °F

High & Low Weather Summary for the Past Weeks

 TemperatureHumidityPressure
High84 °F (Jun 23, 2:20 PM)100% (Jun 15, 5:20 PM)30.21 "Hg (Jun 15, 5:20 PM)
Low45 °F (Jun 20, 3:20 AM)43% (Jun 28, 6:20 PM)29.50 "Hg (Jun 15, 2:20 PM)
Average62 °F82%29.93 "Hg
* Reported Jun 15 2:20 PM — Jun 30 2:20 PM, Rendsburg, Weather by CustomWeather, © 2016

Note: Actual official high and low records may vary slightly from our data, if they occured in-between our weather recording intervals... More about our weather records

Advertising

Rendsburg Weather History for the Previous 24 Hours

Scroll right to see more
 ConditionsComfort  
Time TempWeatherWind HumidityBarometerVisibility
2:20 PM
Thu, Jun 30
64 °FBroken clouds.10 mph78%29.83 "Hg6 mi
1:20 PM63 °FBroken clouds.9 mph83%29.83 "Hg5 mi
12:20 PM61 °FPartly sunny.8 mph88%29.83 "Hg5 mi
11:20 AM61 °FLight rain. Partly sunny.10 mph88%29.83 "Hg5 mi
10:20 AM61 °FLight rain. Partly sunny.7 mph83%29.80 "Hg6 mi
8:20 AM59 °FPartly sunny.6 mph88%29.80 "HgN/A
7:20 AM59 °FPartly sunny.5 mph82%29.80 "HgN/A
6:20 AM59 °FPartly sunny.6 mph77%29.80 "HgN/A
5:20 AM57 °FPassing clouds.5 mph88%29.80 "HgN/A
4:20 AM57 °FPassing clouds.6 mph94%29.80 "HgN/A
3:20 AM57 °FPassing clouds.5 mph94%29.80 "HgN/A
2:20 AM57 °FPassing clouds.7 mph94%29.83 "HgN/A
1:20 AM57 °FPassing clouds.3 mph94%29.83 "HgN/A
12:20 AM55 °FPassing clouds.5 mph100%29.83 "HgN/A
11:20 PM
Wed, Jun 29
55 °FPassing clouds.3 mph94%29.83 "HgN/A
10:20 PM57 °FScattered clouds.3 mph88%29.86 "HgN/A
9:20 PM61 °FBroken clouds.3 mph77%29.83 "HgN/A
8:20 PM63 °FBroken clouds.6 mph73%29.83 "HgN/A
7:20 PM63 °FScattered clouds.10 mph73%29.83 "HgN/A
6:20 PM61 °FPartly sunny.8 mph77%29.83 "HgN/A
5:20 PM63 °FScattered clouds.9 mph77%29.83 "HgN/A
4:20 PM64 °FSprinkles. Partly sunny.13 mph68%29.80 "HgN/A
Weather by CustomWeather, © 2016

See weather overviewHow to use our weather pages